Weather History for Port Hope, MI

Change the Weather History Date:

Saturday, November 17, 2012

  Actual Average Record
Temperature  
Mean Temperature 37 °F -  
Max Temperature 46 °F 43 °F 63 °F (2013)
Min Temperature 28 °F 34 °F 19 °F (2014)
Degree Days  
Heating Degree Days 28    
Moisture  
Dew Point 33 °F    
Average Humidity 83    
Maximum Humidity 96    
Minimum Humidity 66    
Precipitation  
Precipitation 0.00 in - - ()
Sea Level Pressure  
Sea Level Pressure 30.57 in    
Wind  
Wind Speed 2 mph (South)    
Max Wind Speed 6 mph    
Max Gust Speed -    
Averages and records for this station are not official NWS values.
T = Trace of Precipitation, MM = Missing Value Source: NWS Daily Summary

Daily Weather History Graph

Daily Weather History Graph

Search for Another Location

Airport:

Trip Planner

Search our weather history database for the weather conditions in past years. The results will help you decide how hot, cold, wet, or windy it might be!

Date:

Astronomy

Nov. 17, 2012 Rise Set
Actual Time 7:29 AM EST 5:02 PM EST
Civil Twilight 6:58 AM EST 5:33 PM EST
Nautical Twilight 6:22 AM EST 6:09 PM EST
Astronomical Twilight 5:48 AM EST 6:43 PM EST
Moon 11:13 AM EST (11/17) 9:11 PM EST (11/17)
Length of Visible Light 10h 35m
Length of Day
9h 33m
Waxing Crescent, 20% of the Moon is Illuminated
Nov 17
Waxing Crescent
Nov 20
First Quarter
Nov 28
Full
Dec 6
Last Quarter
Dec 13
New

Hourly Weather History & Observations

Time (EST) Temp. Windchill Dew Point Humidity Pressure Visibility Wind Dir Wind Speed Gust Speed Precip Events Conditions
12:51 AM 30.9 °F - 28.9 °F 92% 30.52 in - Calm Calm - N/A   Unknown
1:51 AM 30.0 °F - 28.0 °F 92% 30.52 in - Calm Calm - N/A   Unknown
2:51 AM 28.9 °F - 27.0 °F 92% 30.55 in - Calm Calm - N/A   Unknown
3:51 AM 32.0 °F 28.7 °F 30.9 °F 96% 30.55 in - SSW 3.5 mph - N/A   Unknown
4:51 AM 30.9 °F 27.5 °F 30.0 °F 96% 30.56 in - SW 3.5 mph - N/A   Unknown
5:51 AM 28.9 °F - 28.0 °F 96% 30.58 in - Calm Calm - N/A   Unknown
6:51 AM 28.0 °F - 27.0 °F 96% 30.59 in - Calm Calm - N/A   Unknown
7:51 AM 28.9 °F - 27.0 °F 92% 30.59 in - Calm Calm - N/A   Unknown
8:51 AM 36.0 °F 33.3 °F 33.1 °F 89% 30.60 in - Variable 3.5 mph - N/A   Unknown
9:51 AM 41.0 °F 39.0 °F 35.1 °F 79% 30.61 in - South 3.5 mph - N/A   Unknown
10:51 AM 44.1 °F 41.5 °F 36.0 °F 73% 30.61 in - SSE 4.6 mph - N/A   Unknown
11:51 AM 46.9 °F - 36.0 °F 66% 30.59 in - South 3.5 mph - N/A   Unknown
12:51 PM 46.0 °F 43.1 °F 37.9 °F 73% 30.58 in - NNE 5.8 mph - N/A   Unknown
1:51 PM 46.0 °F - 39.0 °F 76% 30.58 in - Calm Calm - N/A   Unknown
2:51 PM 46.0 °F - 39.0 °F 76% 30.58 in - Calm Calm - N/A   Unknown
3:51 PM 46.0 °F - 39.0 °F 76% 30.57 in - Calm Calm - N/A   Unknown
4:51 PM 43.0 °F - 37.9 °F 82% 30.58 in - Calm Calm - N/A   Unknown
5:51 PM 39.0 °F - 36.0 °F 89% 30.58 in - Calm Calm - N/A   Unknown
6:51 PM 37.0 °F - 35.1 °F 93% 30.58 in - Calm Calm - N/A   Unknown
7:51 PM 39.9 °F 36.7 °F 34.0 °F 79% 30.57 in - South 4.6 mph - N/A   Unknown
8:51 PM 39.0 °F 36.8 °F 32.0 °F 76% 30.57 in - Variable 3.5 mph - N/A   Unknown
9:51 PM 42.1 °F 39.2 °F 32.0 °F 67% 30.57 in - South 4.6 mph - N/A   Unknown
10:51 PM 41.0 °F 38.0 °F 32.0 °F 70% 30.56 in - Variable 4.6 mph - N/A   Unknown
11:51 PM 41.0 °F 39.0 °F 35.1 °F 79% 30.57 in - South 3.5 mph - N/A   Unknown